Tracking 19245 objects as of 14-Aug-2018
HD Live streaming from Space Station
objects crossing your sky now

SHIJIAN-16 (SJ-16)

Track SHIJIAN-16 (SJ-16) now!
10-day predictions
SHIJIAN-16 (SJ-16) is classified as:


NORAD ID: 39358
Int'l Code: 2013-057A
Perigee: 605.3 km
Apogee: 632.9 km
Inclination: 75.0 °
Period: 96.9 minutes
Semi major axis: 6990 km
RCS: Unknown
Launch date: October 25, 2013
Source: People's Republic of China (PRC)
Launch site: Jiuquan Satellite Launch Center, China (JSC)

SHIJIAN-16 will be used mainly for conducting space environment exploration and technological experiments.
aabbcc
Your satellite tracking list
Your tracking list is empty




NASA's NSSDC Master Catalog

Two Line Element Set (TLE):
1 39358U 13057A   18224.89838565 +.00000067 +00000-0 +10959-4 0  9994
2 39358 074.9761 339.3014 0019772 294.4301 065.4834 14.85518014260416
Source of the keplerian elements: AFSPC